[[{"header":{"parameterUnit":"m.s-1","parameterCategory":1,"la1":30.2991,"la2":30.254,"lo1":-89.0895,"lo2":-89.0444,"dy":0.0017,"dx":0.0017,"nx":28,"ny":28,"refTime":"2025-06-07T03:00:00:Z","depth":0,"parameterNumber":2,"parameterNumberName":"U-component_of_WINDS"},"data":[0,0,0,0,0,0,0,0,0,0,0,0,0,0,0,0,0,0,0,0,0,0,0,0,0,0,0,0,0,0,0,0,0,0,0,0,0,0,0,0,0,0,0,0,0,0,0,0,0,0,0,0,0,0,0,0,0,0,4.7132,4.7134,0,4.7332,4.7335,4.7337,4.7315,4.7312,4.7309,4.7306,4.7513,4.7522,4.753,0,0,0,0,0,0,0,0,0,0,0,0,0,4.6731,4.6739,4.7132,4.7134,4.7137,4.7332,4.7335,4.7337,4.7316,4.7312,4.7308,4.7305,4.7511,4.7521,4.7531,0,0,0,0,0,0,0,0,0,0,0,0,0,4.6916,4.6741,4.7131,4.715,4.7153,4.7331,4.7335,4.7338,4.7317,4.7312,4.7307,4.7303,4.7507,4.752,4.7532,4.7706,0,0,4.7571,4.7577,0,0,0,0,0,0,0,0,4.6905,4.6931,4.7144,4.7149,4.7153,4.7294,4.7269,4.7461,4.7318,4.7255,4.7306,4.73,4.7444,4.7462,4.751,4.7716,4.7724,4.7572,4.758,4.7585,4.7589,0,0,0,0,0,0,0,4.6893,4.6922,4.7211,4.7148,4.7153,4.7148,4.7169,4.7306,4.7374,4.726,4.7259,4.7283,4.7446,4.7498,4.7515,4.7727,4.7572,4.7583,4.7591,4.7596,4.8083,4.8088,0,0,0,0,0,0,4.6875,4.6911,4.7205,4.7217,4.7015,4.7159,4.7182,4.7254,4.7372,4.7386,4.7287,4.7281,4.7478,4.75,4.7522,4.7731,4.7585,4.7597,4.7605,4.8077,4.8084,4.809,0,0,0,0,0,0,4.6867,4.6902,4.7197,4.7064,4.7101,4.7171,4.7251,4.726,4.7312,4.7392,4.7405,4.7327,4.7476,4.7504,4.7659,4.7738,4.7603,4.7615,4.8071,4.8079,4.8087,4.8151,0,0,0,0,0,0,4.6855,4.6899,4.6965,4.7066,4.7108,4.7331,4.7256,4.7267,4.7334,4.7328,4.7434,4.7447,4.7474,4.7641,4.7672,4.7753,4.7624,4.8064,4.8075,4.8084,4.8142,4.816,4.8176,0,0,0,0,0,4.6841,4.6977,4.6969,4.7004,4.7193,4.7335,4.736,4.7388,4.734,4.7407,4.7459,4.7443,4.7724,4.7657,4.7692,4.7778,4.806,4.8072,4.8083,4.8135,4.8157,4.8175,0,0,0,0,0,0,4.6885,4.699,4.6983,4.7155,4.7236,4.7331,4.7417,4.7411,4.7508,4.7499,4.7531,4.7555,4.7711,4.776,4.7683,4.7951,4.7885,4.7905,4.7912,4.7934,4.795,4.7934,4.7635,0,0,0,0,0,4.6914,4.7021,4.7107,4.7251,4.7292,4.7348,4.7411,4.7425,4.7511,4.7546,4.7609,4.7693,4.78,4.787,4.7973,4.815,4.8171,4.8226,4.8242,4.8256,4.8272,4.8366,4.8391,4.8129,4.8129,4.8128,0,0,4.6977,4.7047,4.7113,4.7261,4.7326,4.7435,4.7377,4.7495,4.7576,4.7564,4.7713,4.7763,4.7859,4.8025,4.8101,4.8071,4.8349,4.8271,4.8281,4.829,4.8381,4.8406,4.8428,4.8137,4.8135,4.8134,0,0,4.7145,4.721,4.7335,4.7401,4.7499,4.7535,4.7565,4.7662,4.7693,4.7844,4.7836,4.7933,4.8118,4.8186,4.8245,4.8437,4.8426,4.847,4.8557,4.8649,4.8669,4.8688,4.8754,4.8778,4.8486,4.8487,4.8487,0,4.721,4.7374,4.7401,4.752,4.7585,4.7577,4.7704,4.7766,4.7894,4.7939,4.7903,4.8132,4.8197,4.8377,4.8424,4.8473,4.8507,4.8458,4.8664,4.8683,4.87,4.8764,4.8789,4.8491,4.8491,4.849,4.849,0,4.7448,4.7562,4.7651,4.7772,4.7848,4.797,4.8015,4.8088,4.8095,4.8135,4.8287,4.8364,4.8482,4.8526,4.8536,4.8708,4.8685,4.8657,4.8592,4.8729,4.879,4.8814,4.8498,4.8496,4.8495,4.8494,0,0,4.765,4.7783,4.7815,4.7869,4.7977,4.8065,4.8187,4.83,4.8361,4.8449,4.8551,4.8706,4.8679,4.8746,4.8763,4.8844,4.8989,4.8805,4.8808,4.8835,4.918,4.9199,4.9227,4.8982,4.8987,4.8991,4.9171,0,4.7827,4.8041,4.8068,4.8258,4.8362,4.8356,4.8462,4.8539,4.8579,4.8673,4.8718,4.8826,4.8784,4.8824,4.8904,4.8954,4.9058,4.8942,4.9076,4.908,4.905,4.9259,4.928,4.9446,4.9195,4.9199,4.9202,0,4.8063,4.8156,4.8355,4.8446,4.8491,4.8585,4.869,4.8781,4.8868,4.8891,4.8964,4.8971,4.9096,4.9026,4.9198,4.9118,4.9175,4.9208,4.9215,4.9227,4.9148,4.9274,4.95,4.9524,4.924,4.9237,4.9234,0,4.8187,4.8362,4.8503,4.855,4.866,4.8726,4.8775,4.8857,4.8923,4.9015,4.9058,4.9164,4.9222,4.9304,4.9339,4.9285,4.9508,4.9442,4.9529,4.9528,4.9575,4.9571,4.9811,4.9616,4.9615,4.9615,4.9614,0,4.8381,4.8503,4.856,4.8647,4.8783,4.8813,4.8946,4.8993,4.9066,4.9161,4.9163,4.9253,4.9294,4.939,4.9418,4.9554,4.9581,4.9603,4.9609,4.9602,4.9598,4.9638,4.9626,4.9621,4.962,4.9619,4.9617,0,4.8542,4.8586,4.8739,4.883,4.8855,4.8951,4.9029,4.9113,4.9151,4.9272,4.9302,4.9363,4.9476,4.9518,4.9657,4.9675,4.9832,4.983,4.9802,4.9803,4.9887,4.9878,5.0159,5.0196,4.9978,4.998,4.9982,0,4.8662,4.8755,4.8856,4.8919,4.897,4.9072,4.9139,4.9172,4.9241,4.9346,4.9417,4.9528,4.9619,4.98,4.9856,4.9961,4.996,5.0051,4.9976,4.9965,4.9958,4.9951,4.996,5.0064,5.0067,5.0069,5.007,0,4.887,4.8886,4.8981,4.9084,4.9163,4.9246,4.9326,4.9378,4.9423,4.9501,4.9615,4.9686,4.9825,4.9936,5.0043,5.0094,5.0089,5.0093,5.0119,5.0111,5.009,5.01,4.9838,5.0087,5.0085,5.0084,5.0083,5.0082,4.9012,4.9094,4.9176,4.9282,4.9345,4.942,4.9502,4.955,4.9646,4.9761,4.9775,4.9897,4.998,5.0124,5.0179,5.0275,5.025,5.0288,5.0297,5.0305,5.0309,5.0077,5.0295,5.0295,5.0294,5.0294,5.0294,0,4.9217,4.927,4.9367,4.9478,4.9561,4.9549,4.9637,4.9707,4.9814,4.9891,4.998,5.011,5.0217,5.0282,5.0389,5.0453,5.0453,5.0479,5.0474,5.0485,5.0327,5.0293,5.0477,5.0477,5.0477,5.0477,5.0477,5.0477,4.9334,4.947,4.9496,4.9663,4.9715,4.9833,4.9884,4.9953,5.0014,5.0159,5.0247,5.0288,5.036,5.0472,5.0569,5.0585,5.0623,5.0651,5.0665,5.0516,5.0497,5.0478,5.0446,5.066,5.066,5.0815,5.0817,5.0818]},{"header":{"parameterUnit":"m.s-1","parameterCategory":1,"la1":30.2991,"la2":30.254,"lo1":-89.0895,"lo2":-89.0444,"dy":0.0017,"dx":0.0017,"nx":28,"ny":28,"refTime":"2025-06-07T03:00:00:Z","depth":0,"parameterNumber":3,"parameterNumberName":"V-component_of_WINDS"},"data":[0,0,0,0,0,0,0,0,0,0,0,0,0,0,0,0,0,0,0,0,0,0,0,0,0,0,0,0,0,0,0,0,0,0,0,0,0,0,0,0,0,0,0,0,0,0,0,0,0,0,0,0,0,0,0,0,0,0,1.7297,1.7298,0,1.7354,1.7355,1.7355,1.7333,1.7332,1.7331,1.7329,1.7388,1.7391,1.7393,0,0,0,0,0,0,0,0,0,0,0,0,0,1.7169,1.7172,1.7297,1.7298,1.7299,1.7354,1.7355,1.7356,1.7333,1.7332,1.733,1.7329,1.7387,1.739,1.7394,0,0,0,0,0,0,0,0,0,0,0,0,0,1.7225,1.7172,1.7297,1.7294,1.7295,1.7354,1.7355,1.7356,1.7334,1.7332,1.733,1.7328,1.7386,1.739,1.7394,1.746,0,0,1.7407,1.7409,0,0,0,0,0,0,0,0,1.7222,1.723,1.7294,1.7295,1.7295,1.7335,1.7331,1.7391,1.7334,1.7319,1.7329,1.7327,1.7372,1.7377,1.7392,1.7462,1.7465,1.7407,1.741,1.7412,1.7413,0,0,0,0,0,0,0,1.7218,1.7227,1.732,1.7295,1.7296,1.729,1.7296,1.7342,1.7356,1.732,1.7319,1.7326,1.7372,1.7388,1.7393,1.7466,1.7407,1.7411,1.7413,1.7415,1.7592,1.7594,0,0,0,0,0,0,1.7214,1.7224,1.7318,1.7321,1.7253,1.7294,1.73,1.7324,1.7355,1.7358,1.7327,1.7324,1.7382,1.7388,1.7395,1.7474,1.7411,1.7415,1.7418,1.7589,1.7592,1.7594,0,0,0,0,0,0,1.7212,1.7223,1.7316,1.7273,1.7284,1.7298,1.7325,1.7326,1.7342,1.7361,1.7363,1.7342,1.7381,1.7389,1.7444,1.7475,1.7417,1.7421,1.7587,1.759,1.7593,1.7631,0,0,0,0,0,0,1.7208,1.7222,1.7247,1.7273,1.7286,1.7363,1.7327,1.7329,1.735,1.7346,1.7375,1.7377,1.738,1.7437,1.7448,1.748,1.7424,1.7584,1.7588,1.7592,1.7627,1.7636,1.7643,0,0,0,0,0,1.7203,1.7256,1.7249,1.726,1.7318,1.7365,1.7373,1.7374,1.7352,1.7378,1.7389,1.7377,1.747,1.7443,1.7455,1.7489,1.7582,1.7587,1.7592,1.7624,1.7634,1.7642,0,0,0,0,0,0,1.7234,1.7259,1.7252,1.7314,1.7338,1.7361,1.7394,1.7385,1.7415,1.7411,1.7411,1.7418,1.7474,1.7487,1.7456,1.7553,1.7523,1.753,1.7543,1.7553,1.756,1.7556,1.7428,0,0,0,0,0,1.7248,1.7284,1.7304,1.7357,1.7369,1.738,1.74,1.7399,1.7424,1.7433,1.7449,1.7473,1.7508,1.7531,1.7564,1.7629,1.7634,1.7658,1.7665,1.7671,1.7678,1.7713,1.7723,1.7611,1.7611,1.761,0,0,1.7277,1.7295,1.7318,1.7364,1.7382,1.7419,1.7388,1.7429,1.7457,1.744,1.7492,1.7504,1.7531,1.7591,1.7618,1.7603,1.771,1.7678,1.7682,1.7686,1.7719,1.7729,1.7739,1.7614,1.7613,1.7613,0,0,1.7349,1.7367,1.7413,1.7431,1.7459,1.7465,1.7476,1.7501,1.7509,1.7561,1.7549,1.7581,1.7641,1.7661,1.7678,1.7757,1.7746,1.7767,1.7808,1.7841,1.785,1.7858,1.7886,1.7896,1.7774,1.7774,1.7774,0,1.7382,1.7438,1.7437,1.7479,1.7499,1.7485,1.7532,1.755,1.7587,1.7601,1.7584,1.7658,1.7675,1.7739,1.7758,1.7773,1.7785,1.7765,1.7849,1.7857,1.7864,1.7891,1.7901,1.7776,1.7776,1.7776,1.7776,0,1.7477,1.7515,1.7549,1.7585,1.7609,1.7653,1.7659,1.7683,1.768,1.7687,1.774,1.776,1.7797,1.7812,1.7809,1.7875,1.7865,1.7848,1.7818,1.7877,1.7902,1.7912,1.778,1.7779,1.7778,1.7778,0,0,1.7571,1.7605,1.7618,1.7633,1.7662,1.7692,1.7735,1.777,1.7791,1.7817,1.7853,1.7903,1.7888,1.7908,1.7907,1.7936,1.7997,1.7916,1.7917,1.7931,1.8071,1.8083,1.8095,1.7989,1.7991,1.7993,1.8068,0,1.7645,1.7721,1.7721,1.7791,1.7826,1.7812,1.785,1.7871,1.7879,1.7911,1.7919,1.7955,1.7932,1.7944,1.7973,1.7983,1.8025,1.7978,1.8023,1.8025,1.8017,1.8108,1.8122,1.8192,1.8078,1.808,1.8081,0,1.7743,1.7771,1.7844,1.7867,1.7882,1.7916,1.7948,1.7978,1.8002,1.8005,1.8027,1.8022,1.8065,1.8032,1.8092,1.806,1.8078,1.8086,1.8088,1.8093,1.8057,1.8116,1.8214,1.8225,1.8096,1.8095,1.8094,0,1.7804,1.7861,1.7912,1.7926,1.7954,1.7977,1.799,1.8012,1.8033,1.8061,1.8075,1.8107,1.8125,1.815,1.8153,1.8129,1.8213,1.8181,1.8217,1.8217,1.8236,1.8235,1.834,1.8247,1.8247,1.8247,1.8246,0,1.7888,1.7933,1.7939,1.7971,1.8021,1.802,1.807,1.808,1.81,1.8133,1.8122,1.8153,1.8155,1.8187,1.8189,1.8238,1.8246,1.825,1.8251,1.8252,1.8251,1.8264,1.8259,1.8249,1.8249,1.8248,1.8248,0,1.7965,1.7972,1.8026,1.8048,1.8054,1.809,1.8109,1.8138,1.8145,1.8186,1.8196,1.8207,1.8243,1.8249,1.8292,1.8293,1.8352,1.8346,1.8344,1.8343,1.8379,1.8376,1.8496,1.8512,1.8409,1.841,1.8411,0,1.8019,1.8053,1.8078,1.8099,1.8113,1.8148,1.8169,1.817,1.8192,1.8221,1.8247,1.8283,1.8311,1.837,1.8382,1.8414,1.841,1.845,1.8415,1.8415,1.8411,1.8409,1.8412,1.8457,1.8458,1.8459,1.846,0,1.8112,1.8113,1.8144,1.8176,1.8202,1.8227,1.8251,1.8269,1.8272,1.8298,1.8335,1.8357,1.8401,1.8436,1.8468,1.8481,1.8471,1.8471,1.8481,1.8483,1.848,1.8482,1.8362,1.8468,1.8467,1.8467,1.8466,1.8466,1.8179,1.8209,1.8231,1.8266,1.8284,1.8306,1.8335,1.8345,1.8376,1.8411,1.8409,1.845,1.8472,1.8514,1.8529,1.8561,1.8548,1.8563,1.8567,1.857,1.8574,1.8474,1.8567,1.8567,1.8566,1.8566,1.8566,0,1.8273,1.8286,1.8318,1.8351,1.8378,1.8366,1.8391,1.8415,1.8451,1.8473,1.8501,1.8543,1.8577,1.8591,1.8624,1.8647,1.8643,1.8655,1.8654,1.8657,1.8584,1.8572,1.8658,1.8658,1.8658,1.8658,1.8658,1.8658,1.8324,1.8374,1.8377,1.8435,1.8448,1.8488,1.8504,1.8524,1.8541,1.8589,1.8617,1.8625,1.8644,1.8678,1.8708,1.8711,1.8724,1.8738,1.874,1.8671,1.8662,1.8653,1.8642,1.8741,1.8741,1.881,1.8811,1.8811]}]]